When you browse on this site, cookies collect data to enhance your experience and personalize the content and advertising you see.
Visit our Privacy Policy to learn more. By continuing to use the site, you agree to this use of cookies and data.

Hourly Weather El Monte

Today, 15 August, Saturday

Time Temperature Precipitation Wind Pressure Humidity
00:00 +6°C° 0 mm 0 mps 740 mmHg 90%
01:00 +6°C° 0 mm 0 mps 740 mmHg 90%
02:00 +6°C° 0 mm 0 mps 740 mmHg 91%
03:00 +7°C° 0 mm 1 mps 740 mmHg 91%
04:00 +6°C° 0 mm 1 mps 740 mmHg 91%
05:00 +7°C° 0 mm 1 mps 740 mmHg 90%
06:00 +7°C° 0 mm 1 mps 740 mmHg 90%
07:00 +7°C° 0 mm 1 mps 740 mmHg 89%
08:00 +9°C° 0 mm 1 mps 740 mmHg 82%
09:00 +11°C° 0 mm 1 mps 740 mmHg 75%
10:00 +13°C° 0 mm 1 mps 739 mmHg 68%
11:00 +14°C° 0 mm 1 mps 739 mmHg 65%
12:00 +15°C° 0 mm 1 mps 739 mmHg 62%
13:00 +16°C° 0 mm 2 mps 738 mmHg 59%
14:00 +16°C° 0 mm 2 mps 738 mmHg 63%
15:00 +16°C° 0 mm 2 mps 738 mmHg 66%
16:00 +15°C° 0 mm 2 mps 738 mmHg 69%
17:00 +13°C° 0 mm 1 mps 739 mmHg 74%
18:00 +11°C° 0 mm 1 mps 739 mmHg 80%
19:00 +8°C° 0 mm 0 mps 739 mmHg 85%
20:00 +8°C° 0 mm 0 mps 739 mmHg 85%
21:00 +9°C° 0 mm 1 mps 739 mmHg 84%
22:00 +8°C° 0 mm 1 mps 739 mmHg 84%
23:00 +8°C° 0 mm 1 mps 739 mmHg 83%

Tomorrow, 16 August, Sunday

Time Temperature Precipitation Wind Pressure Humidity
00:00 +8°C° 0 mm 1 mps 739 mmHg 83%
01:00 +8°C° 0 mm 1 mps 739 mmHg 82%
02:00 +7°C° 0 mm 1 mps 738 mmHg 81%
03:00 +7°C° 0 mm 1 mps 738 mmHg 80%
04:00 +7°C° 0 mm 1 mps 738 mmHg 79%
05:00 +7°C° 0 mm 1 mps 738 mmHg 77%
06:00 +6°C° 0 mm 0 mps 738 mmHg 75%
07:00 +6°C° 0 mm 0 mps 738 mmHg 73%
08:00 +10°C° 0 mm 1 mps 738 mmHg 68%
09:00 +12°C° 0 mm 1 mps 738 mmHg 62%
10:00 +14°C° 0 mm 1 mps 738 mmHg 56%
11:00 +15°C° 0 mm 1 mps 738 mmHg 55%
12:00 +16°C° 0 mm 1 mps 738 mmHg 54%
13:00 +18°C° 0 mm 1 mps 737 mmHg 53%
14:00 +18°C° 0 mm 1 mps 737 mmHg 57%
15:00 +18°C° 0 mm 1 mps 737 mmHg 61%
16:00 +16°C° 0 mm 2 mps 737 mmHg 65%
17:00 +14°C° 0 mm 1 mps 738 mmHg 71%
18:00 +12°C° 0 mm 1 mps 738 mmHg 77%
19:00 +9°C° 0 mm 0 mps 738 mmHg 83%
20:00 +8°C° 0 mm 0 mps 738 mmHg 84%
21:00 +8°C° 0 mm 0 mps 738 mmHg 84%
22:00 +7°C° 0 mm 0 mps 738 mmHg 84%
23:00 +7°C° 0 mm 0 mps 738 mmHg 84%

Day after tomorrow, 17 August, Monday

Time Temperature Precipitation Wind Pressure Humidity
00:00 +7°C° 0 mm 0 mps 738 mmHg 83%
01:00 +7°C° 0 mm 0 mps 738 mmHg 83%
02:00 +7°C° 0 mm 0 mps 738 mmHg 82%
03:00 +6°C° 0 mm 0 mps 738 mmHg 81%
04:00 +6°C° 0 mm 0 mps 738 mmHg 80%
05:00 +7°C° 0 mm 0 mps 738 mmHg 79%
06:00 +7°C° 0 mm 0 mps 738 mmHg 78%
07:00 +7°C° 0 mm 0 mps 738 mmHg 78%
08:00 +9°C° 0 mm 0 mps 738 mmHg 71%
09:00 +13°C° 0 mm 1 mps 738 mmHg 65%
10:00 +15°C° 0 mm 1 mps 738 mmHg 58%
11:00 +16°C° 0 mm 1 mps 738 mmHg 58%
12:00 +17°C° 0 mm 2 mps 737 mmHg 57%
13:00 +18°C° 0 mm 2 mps 737 mmHg 57%
14:00 +17°C° 0 mm 2 mps 737 mmHg 61%
15:00 +16°C° 0 mm 2 mps 737 mmHg 65%
16:00 +16°C° 0 mm 2 mps 737 mmHg 70%
17:00 +14°C° 0 mm 2 mps 737 mmHg 76%
18:00 +11°C° 0 mm 1 mps 737 mmHg 83%
19:00 +9°C° 0 mm 1 mps 737 mmHg 90%
20:00 +9°C° 0 mm 1 mps 737 mmHg 91%
21:00 +7°C° 0 mm 0 mps 738 mmHg 91%
22:00 +7°C° 0 mm 0 mps 738 mmHg 92%
23:00 +7°C° 0 mm 0 mps 738 mmHg 92%

18 August, Tuesday

Time Temperature Precipitation Wind Pressure Humidity
00:00 +6°C° 0 mm 0 mps 738 mmHg 93%
01:00 +6°C° 0 mm 0 mps 737 mmHg 93%
02:00 +6°C° 0 mm 0 mps 737 mmHg 93%
03:00 +6°C° 0 mm 0 mps 737 mmHg 94%
04:00 +6°C° 0 mm 0 mps 737 mmHg 94%
05:00 +6°C° 0 mm 0 mps 738 mmHg 94%
06:00 +6°C° 0 mm 0 mps 738 mmHg 94%
07:00 +6°C° 0 mm 0 mps 738 mmHg 94%
08:00 +8°C° 0 mm 1 mps 739 mmHg 91%
09:00 +9°C° 0 mm 1 mps 739 mmHg 88%
10:00 +10°C° 0 mm 1 mps 739 mmHg 85%
11:00 +11°C° 0 mm 1 mps 739 mmHg 83%
12:00 +11°C° 0 mm 1 mps 739 mmHg 82%
13:00 +11°C° 0 mm 1 mps 739 mmHg 80%
14:00 +11°C° 0 mm 1 mps 739 mmHg 80%
15:00 +11°C° 0 mm 1 mps 739 mmHg 79%
16:00 +11°C° 0 mm 1 mps 739 mmHg 79%
17:00 +10°C° 0 mm 1 mps 740 mmHg 83%
18:00 +9°C° 0 mm 1 mps 740 mmHg 86%
19:00 +8°C° 0 mm 1 mps 741 mmHg 90%
20:00 +7°C° 0 mm 0 mps 741 mmHg 90%
21:00 +7°C° 0 mm 0 mps 741 mmHg 90%
22:00 +7°C° 0 mm 0 mps 741 mmHg 91%
23:00 +7°C° 0 mm 0 mps 742 mmHg 90%

19 August, Wednesday

Time Temperature Precipitation Wind Pressure Humidity
00:00 +7°C° 0 mm 0 mps 742 mmHg 90%
01:00 +7°C° 0 mm 0 mps 742 mmHg 89%
02:00 +7°C° 0 mm 0 mps 742 mmHg 90%
03:00 +7°C° 0 mm 0 mps 742 mmHg 90%
04:00 +6°C° 0 mm 0 mps 741 mmHg 91%
05:00 +6°C° 0 mm 0 mps 742 mmHg 91%
06:00 +6°C° 0 mm 0 mps 742 mmHg 91%
07:00 +6°C° 0 mm 0 mps 742 mmHg 92%
08:00 +8°C° 0 mm 0 mps 742 mmHg 85%
09:00 +11°C° 0 mm 1 mps 742 mmHg 79%
10:00 +13°C° 0 mm 1 mps 742 mmHg 72%
11:00 +13°C° 0 mm 1 mps 742 mmHg 70%
12:00 +14°C° 0 mm 2 mps 741 mmHg 67%
13:00 +15°C° 0 mm 2 mps 741 mmHg 65%
14:00 +14°C° 0 mm 2 mps 741 mmHg 66%
15:00 +14°C° 0 mm 2 mps 741 mmHg 68%
16:00 +14°C° 0 mm 2 mps 741 mmHg 70%
17:00 +12°C° 0 mm 1 mps 742 mmHg 76%
18:00 +11°C° 0 mm 1 mps 742 mmHg 82%
19:00 +9°C° 0 mm 1 mps 742 mmHg 87%
20:00 +8°C° 0 mm 0 mps 742 mmHg 87%
21:00 +7°C° 0 mm 0 mps 743 mmHg 87%
22:00 +7°C° 0 mm 0 mps 743 mmHg 87%
23:00 +7°C° 0 mm 0 mps 743 mmHg 86%

20 August, Thursday

Time Temperature Precipitation Wind Pressure Humidity
00:00 +7°C° 0 mm 0 mps 742 mmHg 85%
01:00 +7°C° 0 mm 0 mps 742 mmHg 84%
02:00 +7°C° 0 mm 1 mps 742 mmHg 81%
03:00 +7°C° 0 mm 1 mps 742 mmHg 79%
04:00 +7°C° 0 mm 1 mps 742 mmHg 77%
05:00 +8°C° 0 mm 1 mps 742 mmHg 75%
06:00 +8°C° 0 mm 1 mps 742 mmHg 72%
07:00 +8°C° 0 mm 1 mps 742 mmHg 69%
08:00 +11°C° 0 mm 1 mps 742 mmHg 61%
09:00 +13°C° 0 mm 0 mps 742 mmHg 54%
10:00 +15°C° 0 mm 0 mps 741 mmHg 46%
11:00 +18°C° 0 mm 1 mps 741 mmHg 44%
12:00 +19°C° 0 mm 1 mps 741 mmHg 43%
13:00 +20°C° 0 mm 1 mps 740 mmHg 41%
14:00 +20°C° 0 mm 1 mps 740 mmHg 46%
15:00 +19°C° 0 mm 1 mps 740 mmHg 52%
16:00 +19°C° 0 mm 1 mps 740 mmHg 57%
17:00 +16°C° 0 mm 1 mps 740 mmHg 62%
18:00 +14°C° 0 mm 1 mps 741 mmHg 68%
19:00 +10°C° 0 mm 0 mps 741 mmHg 73%
20:00 +11°C° 0 mm 1 mps 740 mmHg 70%
21:00 +11°C° 0 mm 1 mps 740 mmHg 67%
22:00 +11°C° 0 mm 1 mps 740 mmHg 64%
23:00 +11°C° 0 mm 1 mps 740 mmHg 61%
Show more